| time (UTC) | temp F | wind direction | speed MPH | gust MPH | rain 1hr in | rain 24hr in | rain mn in | humidity % | barometer mb |
| 20260505121552 | 61 | 5 | 1.0 | 2.0 | 0.00 | 0.00 | 0.00 | 69 | 1016.8 |
| 20260505121050 | 60 | 314 | 1.0 | 5.0 | 0.00 | 0.00 | 0.00 | 70 | 1016.6 |
| 20260505120546 | 60 | 7 | 0.0 | 0.0 | 0.00 | 0.00 | 0.00 | 72 | 1016.6 |
| 20260505120042 | 59 | 25 | 0.0 | 0.0 | 0.00 | 0.00 | 0.00 | 72 | 1016.6 |
| 20260505115536 | 59 | 23 | 0.0 | 0.0 | 0.00 | 0.00 | 0.00 | 72 | 1016.6 |
| 20260505115034 | 59 | 7 | 0.0 | 2.0 | 0.00 | 0.00 | 0.00 | 73 | 1016.6 |
| 20260505114531 | 59 | 2 | 0.0 | 2.0 | 0.00 | 0.00 | 0.00 | 75 | 1016.5 |
| 20260505114027 | 59 | 354 | 0.0 | 0.0 | 0.00 | 0.00 | 0.00 | 74 | 1016.5 |
| 20260505113524 | 58 | 2 | 0.0 | 0.0 | 0.00 | 0.00 | 0.00 | 74 | 1016.6 |
| 20260505113020 | 58 | 321 | 1.0 | 2.0 | 0.00 | 0.00 | 0.00 | 77 | 1016.6 |
| 20260505112516 | 58 | 28 | 0.0 | 2.0 | 0.00 | 0.00 | 0.00 | 76 | 1016.5 |
| 20260505112015 | 57 | 7 | 1.0 | 2.0 | 0.00 | 0.00 | 0.00 | 78 | 1016.5 |
| 20260505111508 | 57 | 336 | 1.0 | 2.0 | 0.00 | 0.00 | 0.00 | 78 | 1016.4 |
| 20260505111004 | 57 | 22 | 0.0 | 2.0 | 0.00 | 0.00 | 0.00 | 77 | 1016.4 |
| 20260505110501 | 57 | 23 | 0.0 | 0.0 | 0.00 | 0.00 | 0.00 | 78 | 1016.6 |
| 20260505101933 | 57 | 15 | 0.0 | 0.0 | 0.00 | 0.00 | 0.00 | 77 | 1015.7 |
| 20260505101432 | 57 | 19 | 0.0 | 0.0 | 0.00 | 0.00 | 0.00 | 76 | 1015.7 |
| 20260505100928 | 57 | 19 | 0.0 | 0.0 | 0.00 | 0.00 | 0.00 | 75 | 1015.7 |
| 20260505100426 | 58 | 20 | 0.0 | 0.0 | 0.00 | 0.00 | 0.00 | 74 | 1015.6 |
| 20260505095921 | 58 | 20 | 0.0 | 0.0 | 0.00 | 0.00 | 0.00 | 72 | 1015.5 |
| 20260505095418 | 59 | 9 | 0.0 | 0.0 | 0.00 | 0.00 | 0.00 | 71 | 1015.5 |
| 20260505094914 | 59 | 4 | 0.0 | 0.0 | 0.00 | 0.00 | 0.00 | 70 | 1015.4 |
| 20260505094412 | 59 | 353 | 0.0 | 2.0 | 0.00 | 0.00 | 0.00 | 69 | 1015.5 |
| 20260505093907 | 60 | 8 | 0.0 | 2.0 | 0.00 | 0.00 | 0.00 | 70 | 1015.3 |
| 20260505093405 | 60 | 356 | 0.0 | 3.0 | 0.00 | 0.00 | 0.00 | 69 | 1015.1 |
| 20260505092902 | 60 | 350 | 0.0 | 2.0 | 0.00 | 0.00 | 0.00 | 69 | 1015.3 |
| 20260505092400 | 60 | 227 | 0.0 | 2.0 | 0.00 | 0.00 | 0.00 | 68 | 1015.4 |
| 20260505091857 | 61 | 352 | 0.0 | 3.0 | 0.00 | 0.00 | 0.00 | 66 | 1015.4 |
| 20260505091355 | 61 | 343 | 0.0 | 3.0 | 0.00 | 0.00 | 0.00 | 66 | 1015.4 |
| 20260505090852 | 61 | 322 | 2.0 | 2.0 | 0.00 | 0.00 | 0.00 | 66 | 1015.3 |
| 20260505090350 | 61 | 357 | 0.0 | 3.0 | 0.00 | 0.00 | 0.00 | 66 | 1015.3 |
| 20260505085847 | 61 | 354 | 0.0 | 2.0 | 0.00 | 0.00 | 0.00 | 65 | 1015.2 |
| 20260505085345 | 61 | 4 | 0.0 | 2.0 | 0.00 | 0.00 | 0.00 | 65 | 1015.1 |
| 20260505084843 | 61 | 355 | 1.0 | 3.0 | 0.00 | 0.00 | 0.00 | 64 | 1015.2 |
| 20260505084341 | 62 | 348 | 0.0 | 3.0 | 0.00 | 0.00 | 0.00 | 64 | 1015.1 |
| 20260505083838 | 62 | 2 | 0.0 | 7.0 | 0.00 | 0.00 | 0.00 | 64 | 1015.2 |
| 20260505083336 | 62 | 330 | 1.0 | 3.0 | 0.00 | 0.00 | 0.00 | 64 | 1015.0 |
| 20260505082832 | 62 | 2 | 3.0 | 3.0 | 0.00 | 0.00 | 0.00 | 64 | 1014.9 |
| 20260505082328 | 62 | 318 | 2.0 | 3.0 | 0.00 | 0.00 | 0.00 | 64 | 1014.7 |
| 20260505081825 | 62 | 322 | 2.0 | 5.0 | 0.00 | 0.00 | 0.00 | 63 | 1014.7 |
| 20260505081322 | 62 | 11 | 2.0 | 5.0 | 0.00 | 0.00 | 0.00 | 64 | 1014.8 |
| 20260505080818 | 62 | 312 | 4.0 | 5.0 | 0.00 | 0.00 | 0.00 | 63 | 1014.8 |
| 20260505080314 | 62 | 342 | 2.0 | 7.0 | 0.00 | 0.00 | 0.00 | 64 | 1014.8 |
| 20260505075810 | 62 | 308 | 1.0 | 5.0 | 0.00 | 0.00 | 0.00 | 63 | 1014.9 |
| 20260505075307 | 62 | 291 | 4.0 | 7.0 | 0.00 | 0.00 | 0.00 | 63 | 1014.8 |
| 20260505074804 | 63 | 321 | 2.0 | 3.0 | 0.00 | 0.00 | 0.00 | 62 | 1015.0 |
| 20260505074301 | 63 | 304 | 2.0 | 7.0 | 0.00 | 0.00 | 0.00 | 62 | 1015.1 |
| 20260505073759 | 63 | 304 | 2.0 | 5.0 | 0.00 | 0.00 | 0.00 | 62 | 1014.7 |
| 20260505073257 | 63 | 318 | 2.0 | 7.0 | 0.00 | 0.00 | 0.00 | 62 | 1014.5 |
| 20260505072753 | 63 | 333 | 1.0 | 2.0 | 0.00 | 0.00 | 0.00 | 62 | 1014.7 |
| 20260505072249 | 63 | 295 | 3.0 | 5.0 | 0.00 | 0.00 | 0.00 | 62 | 1014.7 |
| 20260505071745 | 63 | 321 | 2.0 | 5.0 | 0.00 | 0.00 | 0.00 | 62 | 1014.9 |
| 20260505071242 | 63 | 347 | 0.0 | 3.0 | 0.00 | 0.00 | 0.00 | 62 | 1014.8 |
| 20260505070740 | 63 | 328 | 2.0 | 5.0 | 0.00 | 0.00 | 0.00 | 61 | 1014.9 |
| 20260505070236 | 64 | 352 | 1.0 | 2.0 | 0.00 | 0.00 | 0.00 | 62 | 1014.9 |
| 20260505065731 | 64 | 303 | 2.0 | 3.0 | 0.00 | 0.00 | 0.00 | 61 | 1014.9 |
| 20260505065229 | 64 | 358 | 0.0 | 3.0 | 0.00 | 0.00 | 0.00 | 62 | 1014.7 |
| 20260505064725 | 64 | 2 | 0.0 | 3.0 | 0.00 | 0.00 | 0.00 | 61 | 1014.9 |
| 20260505064223 | 64 | 343 | 2.0 | 7.0 | 0.00 | 0.00 | 0.00 | 61 | 1014.9 |
| 20260505063720 | 64 | 306 | 3.0 | 5.0 | 0.00 | 0.00 | 0.00 | 60 | 1014.8 |
| 20260505063216 | 64 | 30 | 2.0 | 7.0 | 0.00 | 0.00 | 0.00 | 61 | 1014.8 |
| 20260505062713 | 64 | 337 | 0.0 | 3.0 | 0.00 | 0.00 | 0.00 | 62 | 1014.9 |
| 20260505062211 | 64 | 320 | 2.0 | 3.0 | 0.00 | 0.00 | 0.00 | 62 | 1015.0 |
| 20260505061708 | 64 | 310 | 2.0 | 5.0 | 0.00 | 0.00 | 0.00 | 62 | 1015.0 |
| 20260505061206 | 64 | 319 | 2.0 | 3.0 | 0.00 | 0.00 | 0.00 | 62 | 1014.9 |
| 20260505060703 | 64 | 10 | 2.0 | 5.0 | 0.00 | 0.00 | 0.00 | 62 | 1015.1 |
| 20260505060159 | 63 | 306 | 1.0 | 2.0 | 0.00 | 0.00 | 0.00 | 63 | 1014.9 |
| 20260505055655 | 64 | 3 | 0.0 | 2.0 | 0.00 | 0.00 | 0.00 | 62 | 1015.1 |
| 20260505055151 | 63 | 311 | 2.0 | 3.0 | 0.00 | 0.00 | 0.00 | 62 | 1015.1 |
| 20260505054649 | 64 | 10 | 0.0 | 2.0 | 0.00 | 0.00 | 0.00 | 63 | 1015.1 |
| 20260505054147 | 64 | 346 | 2.0 | 2.0 | 0.00 | 0.00 | 0.00 | 62 | 1015.1 |
| 20260505053644 | 64 | 340 | 0.0 | 3.0 | 0.00 | 0.00 | 0.00 | 61 | 1015.3 |
| 20260505053140 | 64 | 349 | 1.0 | 3.0 | 0.00 | 0.00 | 0.00 | 61 | 1015.4 |
| 20260505052638 | 64 | 8 | 0.0 | 2.0 | 0.00 | 0.00 | 0.00 | 61 | 1015.3 |
| 20260505052135 | 64 | 0 | 0.0 | 2.0 | 0.00 | 0.00 | 0.00 | 63 | 1015.2 |
| 20260505051632 | 64 | 346 | 1.0 | 3.0 | 0.00 | 0.00 | 0.00 | 62 | 1015.3 |
| 20260505051130 | 64 | 347 | 1.0 | 2.0 | 0.00 | 0.00 | 0.00 | 62 | 1015.3 |
| 20260505050627 | 64 | 4 | 0.0 | 2.0 | 0.00 | 0.00 | 0.00 | 62 | 1015.3 |
| 20260505050126 | 64 | 341 | 1.0 | 2.0 | 0.00 | 0.00 | 0.00 | 61 | 1015.5 |
| 20260505041555 | 64 | 358 | 0.0 | 2.0 | 0.00 | 0.00 | 0.00 | 60 | 1015.1 |
| 20260505041053 | 64 | 356 | 0.0 | 3.0 | 0.00 | 0.00 | 0.00 | 60 | 1015.1 |
| 20260505040550 | 64 | 327 | 2.0 | 2.0 | 0.00 | 0.00 | 0.00 | 60 | 1015.1 |
| 20260505040047 | 64 | 3 | 0.0 | 0.0 | 0.00 | 0.00 | 0.00 | 61 | 1015.1 |
| 20260505035543 | 64 | 158 | 2.0 | 2.0 | 0.00 | 0.07 | 0.07 | 61 | 1014.9 |
| 20260505035040 | 64 | 345 | 0.0 | 3.0 | 0.00 | 0.07 | 0.07 | 62 | 1015.0 |
| 20260505034536 | 64 | 2 | 0.0 | 0.0 | 0.00 | 0.07 | 0.07 | 62 | 1015.0 |
| 20260505034033 | 64 | 9 | 0.0 | 2.0 | 0.00 | 0.07 | 0.07 | 64 | 1015.0 |
| 20260505033530 | 64 | 21 | 0.0 | 0.0 | 0.00 | 0.07 | 0.07 | 63 | 1015.0 |
| 20260505033028 | 64 | 359 | 0.0 | 2.0 | 0.00 | 0.07 | 0.07 | 63 | 1014.8 |
| 20260505032526 | 64 | 14 | 0.0 | 0.0 | 0.00 | 0.07 | 0.07 | 63 | 1014.8 |
| 20260505032022 | 64 | 6 | 0.0 | 2.0 | 0.00 | 0.07 | 0.07 | 64 | 1014.5 |
| 20260505031520 | 64 | 33 | 0.0 | 0.0 | 0.00 | 0.07 | 0.07 | 63 | 1014.8 |
| 20260505031016 | 65 | 55 | 0.0 | 2.0 | 0.00 | 0.07 | 0.07 | 61 | 1014.6 |
| 20260505030513 | 65 | 33 | 0.0 | 0.0 | 0.00 | 0.07 | 0.07 | 63 | 1014.6 |
| 20260505030009 | 65 | 18 | 0.0 | 0.0 | 0.00 | 0.07 | 0.07 | 63 | 1014.5 |
| 20260505025505 | 65 | 36 | 0.0 | 2.0 | 0.00 | 0.07 | 0.07 | 63 | 1014.5 |
| 20260505025004 | 65 | 13 | 0.0 | 0.0 | 0.00 | 0.07 | 0.07 | 61 | 1014.2 |
| 20260505024500 | 65 | 13 | 0.0 | 0.0 | 0.00 | 0.07 | 0.07 | 61 | 1014.1 |
| 20260505023957 | 66 | 4 | 0.0 | 0.0 | 0.00 | 0.07 | 0.07 | 61 | 1014.1 |
| 20260505023454 | 66 | 336 | 0.0 | 2.0 | 0.00 | 0.07 | 0.07 | 60 | 1014.0 |
| 20260505022952 | 66 | 355 | 0.0 | 2.0 | 0.00 | 0.07 | 0.07 | 61 | 1014.0 |
| 20260505022449 | 66 | 2 | 0.0 | 2.0 | 0.00 | 0.07 | 0.07 | 62 | 1014.1 |
| 20260505021946 | 66 | 10 | 0.0 | 0.0 | 0.00 | 0.07 | 0.07 | 61 | 1013.8 |
| 20260505021443 | 66 | 4 | 0.0 | 2.0 | 0.00 | 0.07 | 0.07 | 62 | 1013.8 |
| 20260505020938 | 67 | 8 | 0.0 | 0.0 | 0.00 | 0.07 | 0.07 | 62 | 1013.8 |
| 20260505020434 | 67 | 2 | 0.0 | 0.0 | 0.00 | 0.07 | 0.07 | 59 | 1013.7 |
| 20260505015931 | 68 | 1 | 0.0 | 0.0 | 0.00 | 0.07 | 0.07 | 58 | 1013.6 |
| 20260505015428 | 68 | 9 | 0.0 | 2.0 | 0.00 | 0.07 | 0.07 | 59 | 1013.9 |
| 20260505014926 | 68 | 14 | 0.0 | 0.0 | 0.00 | 0.07 | 0.07 | 60 | 1013.6 |
| 20260505014422 | 69 | 26 | 0.0 | 0.0 | 0.00 | 0.07 | 0.07 | 56 | 1013.5 |
| 20260505013919 | 69 | 358 | 0.0 | 2.0 | 0.00 | 0.07 | 0.07 | 56 | 1013.5 |
| 20260505013416 | 69 | 335 | 1.0 | 3.0 | 0.00 | 0.07 | 0.07 | 55 | 1013.5 |
| 20260505012914 | 69 | 250 | 0.0 | 2.0 | 0.00 | 0.07 | 0.07 | 54 | 1013.3 |
| 20260505012412 | 69 | 336 | 2.0 | 3.0 | 0.00 | 0.07 | 0.07 | 55 | 1013.4 |
| 20260505011908 | 69 | 348 | 2.0 | 2.0 | 0.00 | 0.07 | 0.07 | 52 | 1013.4 |
| 20260505011405 | 70 | 351 | 1.0 | 5.0 | 0.00 | 0.07 | 0.07 | 53 | 1013.4 |
| 20260505010901 | 70 | 4 | 0.0 | 3.0 | 0.00 | 0.07 | 0.07 | 53 | 1013.6 |
| 20260505010357 | 70 | 348 | 0.0 | 2.0 | 0.00 | 0.07 | 0.07 | 53 | 1013.5 |
| 20260505005853 | 70 | 22 | 0.0 | 2.0 | 0.00 | 0.07 | 0.07 | 53 | 1013.4 |
| 20260505005350 | 70 | 25 | 0.0 | 0.0 | 0.00 | 0.07 | 0.07 | 52 | 1013.4 |
| 20260505004848 | 71 | 10 | 0.0 | 2.0 | 0.00 | 0.07 | 0.07 | 50 | 1013.3 |
| 20260505004343 | 71 | 17 | 0.0 | 2.0 | 0.00 | 0.07 | 0.07 | 52 | 1013.3 |
| 20260505003841 | 71 | 18 | 0.0 | 2.0 | 0.00 | 0.07 | 0.07 | 53 | 1013.3 |
| 20260505003338 | 72 | 351 | 0.0 | 2.0 | 0.00 | 0.07 | 0.07 | 50 | 1013.3 |
| 20260505002834 | 72 | 353 | 2.0 | 3.0 | 0.00 | 0.07 | 0.07 | 48 | 1013.4 |
| 20260505002331 | 72 | 358 | 1.0 | 3.0 | 0.00 | 0.07 | 0.07 | 47 | 1013.4 |
| 20260505001830 | 72 | 333 | 1.0 | 3.0 | 0.00 | 0.07 | 0.07 | 46 | 1013.6 |
| 20260505001326 | 73 | 16 | 0.0 | 2.0 | 0.00 | 0.07 | 0.07 | 47 | 1013.7 |
| 20260505000823 | 73 | 357 | 1.0 | 2.0 | 0.00 | 0.07 | 0.07 | 46 | 1013.7 |
| 20260505000321 | 73 | 344 | 1.0 | 3.0 | 0.00 | 0.07 | 0.07 | 46 | 1013.9 |
| 20260504235818 | 74 | 340 | 0.0 | 3.0 | 0.00 | 0.07 | 0.07 | 46 | 1013.6 |
| 20260504235314 | 74 | 314 | 2.0 | 3.0 | 0.00 | 0.07 | 0.07 | 45 | 1013.7 |
| 20260504234811 | 74 | 338 | 2.0 | 3.0 | 0.00 | 0.07 | 0.07 | 46 | 1014.1 |
| 20260504234309 | 74 | 8 | 2.0 | 3.0 | 0.00 | 0.07 | 0.07 | 44 | 1014.0 |
| 20260504233805 | 75 | 5 | 2.0 | 3.0 | 0.00 | 0.07 | 0.07 | 45 | 1014.2 |
| 20260504233301 | 75 | 46 | 5.0 | 12.0 | 0.00 | 0.07 | 0.07 | 43 | 1014.1 |
| 20260504232758 | 75 | 303 | 3.0 | 10.0 | 0.00 | 0.07 | 0.07 | 43 | 1014.5 |
| 20260504232255 | 75 | 342 | 2.0 | 3.0 | 0.00 | 0.07 | 0.07 | 45 | 1014.5 |
| 20260504231752 | 75 | 30 | 5.0 | 14.0 | 0.00 | 0.07 | 0.07 | 43 | 1014.3 |
| 20260504231248 | 75 | 355 | 2.0 | 12.0 | 0.00 | 0.07 | 0.07 | 43 | 1014.5 |
| 20260504230744 | 75 | 267 | 4.0 | 7.0 | 0.00 | 0.07 | 0.07 | 45 | 1014.2 |
| 20260504230243 | 76 | 12 | 3.0 | 5.0 | 0.00 | 0.07 | 0.07 | 44 | 1014.7 |
| 20260504225741 | 76 | 349 | 1.0 | 5.0 | 0.00 | 0.07 | 0.07 | 42 | 1014.7 |
| 20260504225237 | 77 | 326 | 4.0 | 9.0 | 0.00 | 0.07 | 0.07 | 42 | 1014.6 |
| 20260504224734 | 77 | 343 | 2.0 | 9.0 | 0.00 | 0.07 | 0.07 | 41 | 1014.7 |
| 20260504224231 | 77 | 314 | 2.0 | 9.0 | 0.00 | 0.07 | 0.07 | 40 | 1014.9 |
| 20260504223728 | 78 | 337 | 4.0 | 7.0 | 0.00 | 0.07 | 0.07 | 39 | 1014.6 |
| 20260504223223 | 79 | 352 | 3.0 | 3.0 | 0.00 | 0.07 | 0.07 | 40 | 1014.5 |
| 20260504222721 | 78 | 355 | 3.0 | 12.0 | 0.00 | 0.07 | 0.07 | 39 | 1014.7 |
| 20260504222217 | 78 | 2 | 3.0 | 9.0 | 0.00 | 0.07 | 0.07 | 40 | 1014.7 |
| 20260504221715 | 78 | 343 | 3.0 | 10.0 | 0.00 | 0.07 | 0.07 | 41 | 1014.6 |
| 20260504221212 | 78 | 2 | 6.0 | 10.0 | 0.00 | 0.07 | 0.07 | 41 | 1014.6 |
| 20260504220708 | 79 | 274 | 6.0 | 9.0 | 0.00 | 0.07 | 0.07 | 41 | 1014.7 |
| 20260504220206 | 79 | 17 | 2.0 | 5.0 | 0.00 | 0.07 | 0.07 | 41 | 1014.7 |
| 20260504215702 | 79 | 291 | 2.0 | 12.0 | 0.00 | 0.07 | 0.07 | 39 | 1014.7 |
| 20260504215159 | 80 | 351 | 3.0 | 9.0 | 0.00 | 0.07 | 0.07 | 38 | 1014.7 |
| 20260504214655 | 79 | 278 | 3.0 | 7.0 | 0.00 | 0.07 | 0.07 | 40 | 1014.5 |
| 20260504214152 | 80 | 49 | 4.0 | 9.0 | 0.00 | 0.07 | 0.07 | 39 | 1014.7 |
| 20260504213648 | 79 | 15 | 6.0 | 9.0 | 0.00 | 0.07 | 0.07 | 39 | 1014.6 |
| 20260504213145 | 78 | 305 | 6.0 | 12.0 | 0.00 | 0.07 | 0.07 | 42 | 1014.5 |
| 20260504212642 | 79 | 20 | 6.0 | 10.0 | 0.00 | 0.07 | 0.07 | 40 | 1014.8 |
| 20260504212138 | 79 | 316 | 3.0 | 9.0 | 0.00 | 0.07 | 0.07 | 40 | 1014.8 |
| 20260504211636 | 80 | 297 | 5.0 | 7.0 | 0.00 | 0.07 | 0.07 | 39 | 1014.6 |
| 20260504211132 | 80 | 237 | 7.0 | 12.0 | 0.00 | 0.07 | 0.07 | 39 | 1014.8 |
| 20260504210630 | 80 | 359 | 1.0 | 9.0 | 0.00 | 0.07 | 0.07 | 42 | 1014.6 |
| 20260504210126 | 79 | 327 | 2.0 | 9.0 | 0.00 | 0.07 | 0.07 | 40 | 1014.6 |
| 20260504205624 | 79 | 286 | 7.0 | 10.0 | 0.00 | 0.07 | 0.07 | 40 | 1014.7 |
| 20260504205121 | 80 | 349 | 4.0 | 12.0 | 0.00 | 0.07 | 0.07 | 41 | 1014.7 |
| 20260504204620 | 80 | 298 | 3.0 | 9.0 | 0.00 | 0.07 | 0.07 | 42 | 1014.7 |
| 20260504204118 | 79 | 304 | 4.0 | 12.0 | 0.00 | 0.07 | 0.07 | 41 | 1015.0 |
| 20260504203616 | 79 | 343 | 3.0 | 3.0 | 0.00 | 0.07 | 0.07 | 42 | 1014.8 |
| 20260504203114 | 80 | 299 | 6.0 | 14.0 | 0.00 | 0.07 | 0.07 | 41 | 1015.1 |
| 20260504202608 | 79 | 279 | 5.0 | 9.0 | 0.00 | 0.07 | 0.07 | 39 | 1015.1 |
| 20260504202106 | 80 | 18 | 6.0 | 10.0 | 0.00 | 0.07 | 0.07 | 40 | 1014.8 |
| 20260504201602 | 79 | 320 | 8.0 | 10.0 | 0.00 | 0.07 | 0.07 | 40 | 1015.0 |
| 20260504201100 | 79 | 236 | 3.0 | 9.0 | 0.00 | 0.07 | 0.07 | 41 | 1015.0 |
| 20260504200556 | 79 | 10 | 3.0 | 10.0 | 0.00 | 0.07 | 0.07 | 42 | 1015.1 |
| 20260504200053 | 79 | 241 | 8.0 | 12.0 | 0.00 | 0.07 | 0.07 | 41 | 1015.5 |
| 20260504195549 | 81 | 7 | 2.0 | 7.0 | 0.00 | 0.07 | 0.07 | 42 | 1015.6 |
| 20260504195046 | 78 | 359 | 3.0 | 5.0 | 0.00 | 0.07 | 0.07 | 42 | 1015.5 |
| 20260504194543 | 78 | 261 | 5.0 | 12.0 | 0.00 | 0.07 | 0.07 | 41 | 1015.7 |
| 20260504194038 | 79 | 333 | 8.0 | 10.0 | 0.00 | 0.07 | 0.07 | 41 | 1015.7 |
| 20260504193535 | 79 | 274 | 4.0 | 7.0 | 0.00 | 0.07 | 0.07 | 42 | 1015.6 |
| 20260504193034 | 78 | 345 | 3.0 | 9.0 | 0.00 | 0.07 | 0.07 | 42 | 1015.7 |
| 20260504192532 | 78 | 330 | 6.0 | 10.0 | 0.00 | 0.07 | 0.07 | 43 | 1015.7 |
| 20260504192029 | 78 | 8 | 4.0 | 9.0 | 0.00 | 0.07 | 0.07 | 43 | 1015.8 |
| 20260504191527 | 78 | 309 | 6.0 | 7.0 | 0.00 | 0.07 | 0.07 | 44 | 1016.0 |
| 20260504191023 | 77 | 13 | 7.0 | 10.0 | 0.00 | 0.07 | 0.07 | 47 | 1015.9 |
| 20260504190519 | 77 | 158 | 5.0 | 10.0 | 0.00 | 0.07 | 0.07 | 47 | 1015.6 |
| 20260504190015 | 76 | 274 | 2.0 | 5.0 | 0.00 | 0.07 | 0.07 | 47 | 1015.8 |
| 20260504185513 | 76 | 333 | 2.0 | 12.0 | 0.00 | 0.07 | 0.07 | 45 | 1015.8 |
| 20260504185009 | 77 | 332 | 5.0 | 9.0 | 0.00 | 0.07 | 0.07 | 47 | 1016.0 |
| 20260504184510 | 77 | 293 | 5.0 | 9.0 | 0.00 | 0.07 | 0.07 | 45 | 1015.8 |
| 20260504184005 | 77 | 257 | 3.0 | 9.0 | 0.00 | 0.07 | 0.07 | 50 | 1015.9 |
| 20260504183503 | 77 | 263 | 3.0 | 10.0 | 0.00 | 0.07 | 0.07 | 47 | 1015.8 |
| 20260504183001 | 77 | 262 | 6.0 | 14.0 | 0.00 | 0.07 | 0.07 | 46 | 1015.8 |
| 20260504182457 | 76 | 269 | 6.0 | 10.0 | 0.00 | 0.07 | 0.07 | 45 | 1016.0 |
| 20260504181955 | 76 | 359 | 6.0 | 10.0 | 0.00 | 0.07 | 0.07 | 48 | 1015.6 |
| 20260504181451 | 77 | 332 | 5.0 | 9.0 | 0.00 | 0.07 | 0.07 | 45 | 1015.8 |
| 20260504180950 | 75 | 23 | 4.0 | 10.0 | 0.00 | 0.07 | 0.07 | 48 | 1015.7 |
| 20260504180449 | 75 | 289 | 3.0 | 7.0 | 0.00 | 0.07 | 0.07 | 48 | 1015.8 |
| 20260504175947 | 74 | 8 | 3.0 | 9.0 | 0.00 | 0.07 | 0.07 | 51 | 1015.9 |
| 20260504175444 | 74 | 294 | 6.0 | 10.0 | 0.00 | 0.07 | 0.07 | 48 | 1015.8 |
| 20260504174941 | 74 | 340 | 3.0 | 14.0 | 0.00 | 0.07 | 0.07 | 51 | 1015.7 |
| 20260504174438 | 75 | 287 | 6.0 | 9.0 | 0.00 | 0.07 | 0.07 | 48 | 1015.7 |
| 20260504173936 | 75 | 313 | 4.0 | 9.0 | 0.00 | 0.07 | 0.07 | 49 | 1015.8 |
| 20260504173432 | 74 | 309 | 3.0 | 14.0 | 0.00 | 0.07 | 0.07 | 48 | 1015.8 |
| 20260504172930 | 75 | 342 | 3.0 | 7.0 | 0.00 | 0.07 | 0.07 | 50 | 1015.7 |
| 20260504172425 | 74 | 318 | 4.0 | 9.0 | 0.00 | 0.07 | 0.07 | 50 | 1015.6 |
| 20260504171922 | 72 | 237 | 3.0 | 10.0 | 0.00 | 0.07 | 0.07 | 50 | 1016.0 |
| 20260504171419 | 73 | 289 | 2.0 | 9.0 | 0.00 | 0.07 | 0.07 | 53 | 1015.9 |
| 20260504170916 | 72 | 23 | 2.0 | 9.0 | 0.00 | 0.07 | 0.07 | 50 | 1015.8 |
| 20260504170413 | 73 | 314 | 6.0 | 10.0 | 0.00 | 0.07 | 0.07 | 49 | 1016.2 |
| 20260504160331 | 67 | 324 | 3.0 | 14.0 | 0.00 | 0.07 | 0.07 | 59 | 1017.1 |
| 20260504150756 | 62 | 195 | 2.0 | 7.0 | 0.00 | 0.07 | 0.07 | 66 | 1017.0 |
| 20260504150253 | 61 | 336 | 3.0 | 12.0 | 0.00 | 0.07 | 0.07 | 69 | 1017.3 |
| 20260504141223 | 56 | 307 | 2.0 | 5.0 | 0.00 | 0.07 | 0.07 | 84 | 1018.0 |
| 20260504140719 | 55 | 285 | 2.0 | 3.0 | 0.00 | 0.07 | 0.07 | 84 | 1018.3 |
| 20260504140214 | 54 | 343 | 1.0 | 2.0 | 0.00 | 0.07 | 0.07 | 85 | 1018.7 |
| 20260504130643 | 54 | 0 | 2.0 | 10.0 | 0.00 | 0.07 | 0.07 | 80 | 1018.5 |
| 20260504130140 | 54 | 303 | 5.0 | 7.0 | 0.00 | 0.07 | 0.07 | 81 | 1018.5 |